Content
SEND FEEDBACK

Daily
Averages
Monthly
Summary
Canada

RICHMOND NATURE PARK, BRITISH COLUMBIA


Home > North America > Canada > British Columbia
Elevation: 10 feet     Latitude: 49 10N     Longitude: 123 05W

WEATHER
 
SELECT A DAY
Number of Records: 196,930;   Date Range: 1/1/95 - 9/30/14
 
SHARE

PRINT THIS DATA

[ ← Previous Day ]
WEATHER ALMANAC - DECEMBER 17, 2013
[ Next Day → ]
[ °C ]   °F
Weather ElementAverageHighLow
Temperature40 °F43 °F (10:00 pm)33.8 °F (2:00 am)
Dewpoint38.3 °F41 °F (8:00 pm)33.8 °F (1:00 am)
Humidity93.3 %100 % (2:00 am)87 % (2:32 pm)
Barometer30.15 in30.27 in (1:00 am)30.07 in (9:00 pm)
Wind Speed8.6 mph13.8 mph (2:32 pm)
Weather ElementAverage
Visibility14.4 mi
Wind DirectionE (86.7 °)

Weather ElementTotal
Precipitation---
Heating Degree Days26.6 (Base 65)
Averaged from 33 records on December 17, 2013
WEATHER CONDITIONS BREAKOUT
WIND DIRECTION BREAKOUT
WEATHER BY HOUR - DECEMBER 17, 2013
[ °C ]   °F
Local TimeTemperatureDewpointHumidityBarometerVisibilityWind DirectionWind SpeedGust SpeedPrecipitationEventsConditions
1:00 AM35.6 °F33.8 °F93 %30.27 in15.0 miEast (90°)3.5 mphFogShallow Fog
2:00 AM33.8 °F33.8 °F100 %30.26 in15.0 miEast (80°)2.3 mphMostly Cloudy
3:00 AM35.6 °F35.6 °F100 %30.25 in15.0 miVariable2.3 mphMostly Cloudy
4:00 AM35.0 °F35.0 °F98 %30.23 in15.0 miEast (90°)8.1 mphScattered Clouds
4:00 AM35.6 °F35.6 °F100 %30.23 in15.0 miEast (90°)6.9 mphMostly Cloudy
5:00 AM35.6 °F33.8 °F93 %30.20 in15.0 miESE (110°)5.8 mphMostly Cloudy
6:00 AM35.6 °F35.6 °F100 %30.19 in15.0 miEast (90°)8.1 mphMostly Cloudy
7:00 AM39.2 °F37.4 °F93 %30.19 in15.0 miEast (90°)6.9 mphOvercast
7:26 AM39.2 °F37.4 °F93 %30.18 in15.0 miEast (100°)9.2 mphRainLight Rain
8:00 AM39.2 °F37.4 °F93 %30.18 in15.0 miEast (100°)9.2 mphRainLight Rain
9:00 AM39.2 °F37.4 °F93 %30.19 in15.0 miEast (90°)10.4 mphOvercast
10:00 AM40.0 °F38.0 °F91 %30.19 in15.0 miEast (100°)8.1 mphPartly Cloudy
10:00 AM39.2 °F39.2 °F100 %30.19 in15.0 miEast (100°)8.1 mphOvercast
10:43 AM41.0 °F39.2 °F93 %30.18 in15.0 miEast (100°)9.2 mphOvercast
11:00 AM41.0 °F39.2 °F93 %30.17 in15.0 miEast (100°)10.4 mphOvercast
12:00 PM41.0 °F39.2 °F93 %30.15 in15.0 miEast (100°)12.7 mphOvercast
1:00 PM41.0 °F39.2 °F93 %30.13 in15.0 miEast (100°)12.7 mphOvercast
1:24 PM41.0 °F39.2 °F93 %30.13 in15.0 miEast (90°)8.1 mphOvercast
2:00 PM41.0 °F39.2 °F93 %30.12 in15.0 miEast (100°)10.4 mphOvercast
2:32 PM42.8 °F39.2 °F87 %30.11 in15.0 miEast (100°)13.8 mphOvercast
3:00 PM42.8 °F39.2 °F87 %30.10 in15.0 miEast (100°)11.5 mphOvercast
3:24 PM41.0 °F39.2 °F93 %30.11 in15.0 miEast (90°)9.2 mphOvercast
4:00 PM42.0 °F39.0 °F87 %30.11 in15.0 miEast (90°)10.4 mphOvercast
4:00 PM41.0 °F39.2 °F93 %30.10 in15.0 miEast (90°)9.2 mphOvercast
5:00 PM41.0 °F39.2 °F93 %30.10 in15.0 miEast (90°)10.4 mphOvercast
6:00 PM41.0 °F39.2 °F93 %30.09 in15.0 miEast (90°)11.5 mphOvercast
7:00 PM42.8 °F39.2 °F87 %30.08 in12.0 miEast (80°)9.2 mphOvercast
8:00 PM42.8 °F41.0 °F93 %30.08 in12.0 miENE (70°)9.2 mphOvercast
9:00 PM42.8 °F41.0 °F93 %30.07 in12.0 miENE (60°)9.2 mphOvercast
10:00 PM43.0 °F41.0 °F90 %30.08 in12.0 miENE (70°)6.9 mphOvercast
10:00 PM42.8 °F41.0 °F93 %30.08 in12.0 miENE (70°)6.9 mphOvercast
11:00 PM42.8 °F41.0 °F93 %30.07 in12.0 miENE (60°)6.9 mphOvercast
11:28 PM41.0 °F39.2 °F93 %30.07 in12.0 miEast (80°)8.1 mphOvercast
Hourly data recorded from CYVR, located miles away from Richmond Nature Park, British Columbia







STORIES FROM OUR PARTNERS